Location: *
(58.7167°N, 26.1833°E)
Time: 02:40:11
(UTC+00:00)

Okean 2 Rocket - Pass Details

Date: 25 August 2019
Orbit: 618 x 640 km, 82.5° (Epoch: 16 September)

Event Time Altitude Azimuth Distance (km) Brightness Sun altitude
Exits shadow 19:05:33 14° 147° (SSE) 1,747 4.8 -10.6°
Maximum altitude 19:08:45 32° 90° (E) 1,085 3.9 -10.9°
Drops below altitude 10° 19:12:41 10° 28° (NNE) 2,011 5.9 -11.3°
Sets 19:15:06 0° 18° (NNE) 2,927 6.9 -11.5°
